Time,TemperatureF,DewpointF,PressureIn,WindDirection,WindDirectionDegrees,WindSpeedMPH,WindSpeedGustMPH,Humidity,HourlyPrecipIn,Conditions,Clouds,dailyrainin,SoftwareType,DateUTC
2013-03-30 00:00:00,74.5,70.4,29.83,SE,135,0.6,1.3,87,0.00,,BKN050,0.00,VWS V13.01,2013-03-29 14:00:00,
2013-03-30 00:15:00,74.0,70.2,29.83,SE,135,0.6,1.3,88,0.00,,BKN050,0.00,VWS V13.01,2013-03-29 14:15:00,
2013-03-30 00:30:00,73.7,70.3,29.82,SE,135,0.6,0.0,89,0.00,,BKN050,0.00,VWS V13.01,2013-03-29 14:30:00,
2013-03-30 00:45:00,73.3,69.9,29.82,SE,135,0.6,0.0,89,0.00,,BKN050,0.00,VWS V13.01,2013-03-29 14:45:00,
2013-03-30 01:00:00,73.2,69.4,29.81,SE,135,0.6,1.3,88,0.00,,BKN050,0.00,VWS V13.01,2013-03-29 15:00:00,
2013-03-30 01:15:00,73.8,69.0,29.81,SW,225,0.6,7.5,85,0.00,,BKN050,0.00,VWS V13.01,2013-03-29 15:15:00,
2013-03-30 01:30:00,75.1,69.9,29.80,SSE,158,0.6,5.0,84,0.00,,BKN050,0.00,VWS V13.01,2013-03-29 15:30:00,
2013-03-30 01:45:00,74.8,70.3,29.79,SSE,158,0.6,1.3,86,0.00,,BKN050,0.00,VWS V13.01,2013-03-29 15:45:00,
2013-03-30 02:00:00,74.0,69.9,29.79,SSE,158,0.6,1.3,87,0.00,,BKN050,0.00,VWS V13.01,2013-03-29 16:00:00,
2013-03-30 02:15:00,73.5,69.7,29.79,SSE,158,0.6,3.8,88,0.00,,BKN050,0.00,VWS V13.01,2013-03-29 16:15:00,
2013-03-30 02:30:00,73.3,69.5,29.78,SSE,158,0.6,3.8,88,0.00,,BKN050,0.00,VWS V13.01,2013-03-29 16:30:00,
2013-03-30 02:45:00,73.2,69.4,29.78,SSE,158,0.6,2.5,88,0.00,,BKN050,0.00,VWS V13.01,2013-03-29 16:45:00,
2013-03-30 03:00:00,73.2,69.4,29.77,SSE,158,0.6,3.8,88,0.00,,BKN050,0.00,VWS V13.01,2013-03-29 17:00:00,
2013-03-30 03:15:00,73.2,69.4,29.77,SSE,158,0.6,2.5,88,0.00,,BKN050,0.00,VWS V13.01,2013-03-29 17:15:00,
2013-03-30 03:30:00,72.9,69.5,29.77,SSE,158,0.6,1.3,89,0.00,,BKN050,0.00,VWS V13.01,2013-03-29 17:30:00,
2013-03-30 03:45:00,72.9,68.5,29.77,SSE,158,1.9,6.2,86,0.00,,BKN050,0.00,VWS V13.01,2013-03-29 17:45:00,
2013-03-30 04:00:00,73.5,68.7,29.77,SE,135,0.6,5.0,85,0.00,,BKN050,0.00,VWS V13.01,2013-03-29 18:00:00,
2013-03-30 04:15:00,74.1,67.9,29.77,SE,135,1.9,6.2,81,0.00,,BKN050,0.00,VWS V13.01,2013-03-29 18:15:00,
2013-03-30 04:30:00,74.5,68.3,29.77,SE,135,0.6,5.0,81,0.00,,BKN050,0.00,VWS V13.01,2013-03-29 18:30:00,
2013-03-30 04:45:00,74.6,67.7,29.77,SE,135,0.6,6.2,79,0.00,,BKN050,0.00,VWS V13.01,2013-03-29 18:45:00,
2013-03-30 05:00:00,75.0,67.3,29.77,SE,135,0.6,1.3,77,0.00,,BKN050,0.00,VWS V13.01,2013-03-29 19:00:00,
2013-03-30 05:15:00,75.1,67.8,29.78,SE,135,0.6,1.3,78,0.00,,BKN050,0.00,VWS V13.01,2013-03-29 19:15:00,
2013-03-30 05:30:00,74.9,67.6,29.78,SE,135,0.6,0.0,78,0.00,,BKN050,0.00,VWS V13.01,2013-03-29 19:30:00,
2013-03-30 05:45:00,74.5,67.6,29.78,SE,135,0.6,1.3,79,0.00,,BKN050,0.00,VWS V13.01,2013-03-29 19:45:00,
2013-03-30 06:00:00,73.8,68.0,29.78,SE,135,0.6,1.3,82,0.00,,BKN050,0.00,VWS V13.01,2013-03-29 20:00:00,
2013-03-30 06:15:00,73.1,68.0,29.79,SE,135,0.6,1.3,84,0.00,,BKN050,0.00,VWS V13.01,2013-03-29 20:15:00,
2013-03-30 06:30:00,72.7,67.9,29.79,SE,135,0.6,2.5,85,0.00,,BKN050,0.00,VWS V13.01,2013-03-29 20:30:00,
2013-03-30 06:45:00,72.4,68.3,29.79,SE,135,0.6,1.3,87,0.00,,BKN050,0.00,VWS V13.01,2013-03-29 20:45:00,
2013-03-30 07:08:00,72.3,68.6,29.80,SE,135,0.6,2.5,88,0.00,,BKN050,0.00,VWS V13.01,2013-03-29 21:08:00,
2013-03-30 07:13:00,72.7,69.3,29.80,SE,136,0.6,2.5,89,0.00,,BKN050,0.00,VWS V13.01,2013-03-29 21:13:00,
2013-03-30 07:18:00,73.0,69.2,29.80,SE,136,0.6,2.5,88,0.00,,BKN050,0.00,VWS V13.01,2013-03-29 21:18:00,
2013-03-30 07:23:00,73.7,69.6,29.80,SE,136,0.6,2.5,87,0.00,,BKN050,0.00,VWS V13.01,2013-03-29 21:23:00,
2013-03-30 07:28:00,74.2,69.4,29.80,SE,136,4.4,4.4,85,0.00,,BKN050,0.00,VWS V13.01,2013-03-29 21:28:00,
2013-03-30 08:32:00,80.3,70.9,29.82,SE,126,1.9,2.5,73,0.00,,BKN050,0.00,VWS V13.01,2013-03-29 22:32:00,
2013-03-30 08:37:00,80.7,70.8,29.82,SSE,153,0.6,2.5,72,0.00,,BKN050,0.00,VWS V13.01,2013-03-29 22:37:00,
2013-03-30 08:42:00,80.9,71.0,29.82,SSE,163,3.1,3.1,72,0.00,,BKN050,0.00,VWS V13.01,2013-03-29 22:42:00,
2013-03-30 08:47:00,81.1,71.6,29.83,SE,140,0.6,2.5,73,0.00,,SCT030,0.00,VWS V13.01,2013-03-29 22:47:00,
2013-03-30 08:52:00,81.1,70.8,29.83,SE,128,1.9,2.5,71,0.00,,SCT030,0.00,VWS V13.01,2013-03-29 22:52:00,
2013-03-30 08:57:00,80.7,71.2,29.83,ESE,106,0.6,2.5,73,0.00,,SCT030,0.00,VWS V13.01,2013-03-29 22:57:00,
2013-03-30 09:02:00,81.2,70.9,29.84,SSE,153,0.6,2.5,71,0.00,,SCT030,0.00,VWS V13.01,2013-03-29 23:02:00,
2013-03-30 09:07:00,81.8,70.6,29.84,South,189,1.9,2.5,69,0.00,,SCT030,0.00,VWS V13.01,2013-03-29 23:07:00,
2013-03-30 09:12:00,82.2,71.4,29.84,SSW,195,0.6,2.5,70,0.00,,SCT030,0.00,VWS V13.01,2013-03-29 23:12:00,
2013-03-30 09:17:00,82.8,70.7,29.84,SE,138,0.6,2.5,67,0.00,,SCT040,0.00,VWS V13.01,2013-03-29 23:17:00,
2013-03-30 09:22:00,82.4,70.8,29.84,South,178,0.6,2.5,68,0.00,,SCT040,0.00,VWS V13.01,2013-03-29 23:22:00,
2013-03-30 09:30:00,82.2,73.1,29.85,SE,135,4.4,18.7,74,0.00,,SCT040,0.00,VWS V13.01,2013-03-29 23:30:00,
2013-03-30 09:45:00,78.5,72.6,29.85,SSE,158,5.6,15.0,82,0.00,,SCT040,0.00,VWS V13.01,2013-03-29 23:45:00,
2013-03-30 10:00:00,77.8,70.0,29.84,South,180,3.1,10.0,77,0.00,,SCT040,0.00,VWS V13.01,2013-03-30 00:00:00,
2013-03-30 10:15:00,79.6,69.8,29.84,South,180,3.1,7.5,72,0.00,,SCT040,0.00,VWS V13.01,2013-03-30 00:15:00,
2013-03-30 10:30:00,81.0,70.3,29.84,South,180,1.9,7.5,70,0.00,,SCT040,0.00,VWS V13.01,2013-03-30 00:30:00,
2013-03-30 10:45:00,81.9,71.2,29.84,SSW,202,1.9,8.7,70,0.00,,SCT040,0.00,VWS V13.01,2013-03-30 00:45:00,
2013-03-30 11:00:00,83.3,71.6,29.84,SE,135,1.9,8.7,68,0.00,,SCT040,0.00,VWS V13.01,2013-03-30 01:00:00,
2013-03-30 11:15:00,83.7,71.6,29.83,SE,135,3.1,12.5,67,0.00,,SCT040,0.00,VWS V13.01,2013-03-30 01:15:00,
2013-03-30 11:30:00,84.7,72.1,29.82,SSW,202,1.9,8.7,66,0.00,,SCT040,0.00,VWS V13.01,2013-03-30 01:30:00,
2013-03-30 11:45:00,85.7,72.6,29.82,WSW,248,1.9,6.2,65,0.00,,SCT040,0.00,VWS V13.01,2013-03-30 01:45:00,
2013-03-30 12:00:00,85.0,71.0,29.81,SE,135,3.1,10.0,63,0.00,,SCT040,0.00,VWS V13.01,2013-03-30 02:00:00,
2013-03-30 12:15:00,84.8,72.2,29.80,SE,135,1.9,8.7,66,0.00,,SCT040,0.00,VWS V13.01,2013-03-30 02:15:00,
2013-03-30 12:30:00,86.0,71.0,29.79,ESE,112,3.1,12.5,61,0.00,,SCT040,0.00,VWS V13.01,2013-03-30 02:30:00,
2013-03-30 12:45:00,85.3,70.8,29.78,ENE,68,3.1,12.5,62,0.00,,SCT040,0.00,VWS V13.01,2013-03-30 02:45:00,
2013-03-30 13:00:00,85.2,72.1,29.78,ENE,68,3.1,13.7,65,0.00,,SCT040,0.00,VWS V13.01,2013-03-30 03:00:00,
2013-03-30 13:15:00,85.4,72.3,29.76,ENE,68,3.1,12.5,65,0.00,,SCT040,0.00,VWS V13.01,2013-03-30 03:15:00,
2013-03-30 13:30:00,85.5,72.4,29.76,ENE,68,5.6,12.5,65,0.00,,SCT040,0.00,VWS V13.01,2013-03-30 03:30:00,
2013-03-30 13:45:00,85.4,72.3,29.76,ENE,68,5.6,18.7,65,0.00,,SCT040,0.00,VWS V13.01,2013-03-30 03:45:00,
2013-03-30 14:00:00,85.0,71.9,29.76,ENE,68,4.4,12.5,65,0.00,,SCT040,0.00,VWS V13.01,2013-03-30 04:00:00,
2013-03-30 14:15:00,84.8,72.6,29.75,ENE,68,1.9,11.3,67,0.00,,SCT040,0.00,VWS V13.01,2013-03-30 04:15:00,
2013-03-30 14:30:00,85.2,72.1,29.74,ENE,68,3.1,13.7,65,0.00,,SCT040,0.00,VWS V13.01,2013-03-30 04:30:00,
2013-03-30 14:45:00,85.0,72.4,29.74,ENE,68,3.1,11.3,66,0.00,,SCT040,0.00,VWS V13.01,2013-03-30 04:45:00,
2013-03-30 15:00:00,85.1,72.0,29.73,ENE,68,3.1,11.3,65,0.00,,SCT040,0.00,VWS V13.01,2013-03-30 05:00:00,
2013-03-30 15:15:00,85.1,72.0,29.73,East,90,3.1,12.5,65,0.00,,SCT040,0.00,VWS V13.01,2013-03-30 05:15:00,
2013-03-30 15:30:00,85.1,72.0,29.73,ENE,68,3.1,12.5,65,0.00,,SCT040,0.00,VWS V13.01,2013-03-30 05:30:00,
2013-03-30 15:45:00,85.0,73.3,29.73,ENE,68,3.1,13.7,68,0.00,,SCT040,0.00,VWS V13.01,2013-03-30 05:45:00,
2013-03-30 16:00:00,84.8,72.6,29.74,East,90,4.4,13.7,67,0.00,,SCT040,0.00,VWS V13.01,2013-03-30 06:00:00,
2013-03-30 16:15:00,84.8,73.5,29.74,ENE,68,4.4,13.7,69,0.00,,SCT040,0.00,VWS V13.01,2013-03-30 06:15:00,
2013-03-30 16:30:00,83.6,72.4,29.74,ESE,112,3.1,12.5,69,0.00,,SCT040,0.00,VWS V13.01,2013-03-30 06:30:00,
2013-03-30 16:45:00,83.0,73.5,29.75,East,90,3.1,13.7,73,0.00,,SCT040,0.00,VWS V13.01,2013-03-30 06:45:00,
2013-03-30 17:00:00,82.6,73.1,29.75,ESE,112,3.1,12.5,73,0.00,,SCT040,0.00,VWS V13.01,2013-03-30 07:00:00,
2013-03-30 17:15:00,82.4,72.9,29.75,East,90,3.1,13.7,73,0.00,,SCT040,0.00,VWS V13.01,2013-03-30 07:15:00,
2013-03-30 17:30:00,81.9,72.0,29.75,ESE,112,3.1,12.5,72,0.00,,SCT040,0.00,VWS V13.01,2013-03-30 07:30:00,
2013-03-30 17:45:00,82.0,71.7,29.75,SE,135,1.9,10.0,71,0.00,,SCT040,0.00,VWS V13.01,2013-03-30 07:45:00,
2013-03-30 18:00:00,81.4,71.5,29.76,SSE,158,1.9,8.7,72,0.00,,SCT040,0.00,VWS V13.01,2013-03-30 08:00:00,
2013-03-30 18:15:00,80.5,70.7,29.76,SE,135,0.6,3.8,72,0.00,,SCT040,0.00,VWS V13.01,2013-03-30 08:15:00,
2013-03-30 18:30:00,80.0,70.6,29.77,SE,135,0.6,5.0,73,0.00,,SCT040,0.00,VWS V13.01,2013-03-30 08:30:00,
2013-03-30 18:45:00,79.7,69.9,29.77,South,180,0.6,5.0,72,0.00,,SCT040,0.00,VWS V13.01,2013-03-30 08:45:00,
2013-03-30 19:00:00,79.6,69.8,29.78,SE,135,1.9,10.0,72,0.00,,SCT040,0.00,VWS V13.01,2013-03-30 09:00:00,
2013-03-30 19:15:00,79.4,70.0,29.78,SE,135,1.9,8.7,73,0.00,,SCT040,0.00,VWS V13.01,2013-03-30 09:15:00,
2013-03-30 19:30:00,79.0,70.8,29.79,SE,135,3.1,10.0,76,0.00,,SCT040,0.00,VWS V13.01,2013-03-30 09:30:00,
2013-03-30 19:45:00,78.6,71.2,29.80,SE,135,0.6,6.2,78,0.00,,SCT040,0.00,VWS V13.01,2013-03-30 09:45:00,
2013-03-30 20:00:00,78.2,71.5,29.80,SE,135,0.6,3.8,80,0.00,,SCT040,0.00,VWS V13.01,2013-03-30 10:00:00,
2013-03-30 20:15:00,77.9,71.2,29.81,SSE,158,0.6,5.0,80,0.00,,SCT040,0.00,VWS V13.01,2013-03-30 10:15:00,
2013-03-30 20:30:00,78.1,71.1,29.81,SSE,158,0.6,3.8,79,0.00,,SCT040,0.00,VWS V13.01,2013-03-30 10:30:00,
2013-03-30 20:45:00,78.3,71.3,29.82,SE,135,0.6,5.0,79,0.00,,SCT040,0.00,VWS V13.01,2013-03-30 10:45:00,
2013-03-30 21:00:00,78.1,71.4,29.83,South,180,0.6,5.0,80,0.00,,SCT040,0.00,VWS V13.01,2013-03-30 11:00:00,
2013-03-30 21:15:00,77.8,71.5,29.83,SSE,158,0.6,1.3,81,0.00,,SCT040,0.00,VWS V13.01,2013-03-30 11:15:00,
2013-03-30 21:30:00,77.4,71.5,29.83,SSE,158,0.6,1.3,82,0.00,,SCT040,0.00,VWS V13.01,2013-03-30 11:30:00,
2013-03-30 21:45:00,76.9,71.7,29.84,SSE,158,0.6,3.8,84,0.00,,SCT040,0.00,VWS V13.01,2013-03-30 11:45:00,
2013-03-30 22:00:00,76.8,71.9,29.84,SE,135,4.4,12.5,85,0.00,,SCT040,0.00,VWS V13.01,2013-03-30 12:00:00,
2013-03-30 22:15:00,76.0,72.2,29.84,SSE,158,1.9,12.5,88,0.00,,SCT040,0.00,VWS V13.01,2013-03-30 12:15:00,
2013-03-30 22:30:00,75.0,71.2,29.84,WSW,248,0.6,5.0,88,0.00,,SCT040,0.00,VWS V13.01,2013-03-30 12:30:00,
2013-03-30 22:45:00,74.8,71.0,29.84,WSW,248,0.6,1.3,88,0.00,,SCT040,0.00,VWS V13.01,2013-03-30 12:45:00,
2013-03-30 23:00:00,75.0,71.2,29.84,SE,135,1.9,8.7,88,0.00,,SCT040,0.00,VWS V13.01,2013-03-30 13:00:00,
2013-03-30 23:15:00,74.6,70.8,29.84,WSW,248,0.6,6.2,88,0.00,,SCT040,0.00,VWS V13.01,2013-03-30 13:15:00,
2013-03-30 23:30:00,74.8,70.3,29.83,SE,135,0.6,6.2,86,0.00,,SCT040,0.00,VWS V13.01,2013-03-30 13:30:00,
2013-03-30 23:45:00,75.3,70.5,29.82,SE,135,1.9,7.5,85,0.00,,SCT040,0.00,VWS V13.01,2013-03-30 13:45:00,